Temperature
21 21 21 21 20 19 21 22 22 22 21 21 21 21 20 19 19 19 18 19 19 19 18 19 19 19 19 19 19 19 19 19 19 19 19 19 19 19 19 19 18 18 18 18 18 18 18 18 18
21 21 21 21 19 20 21 22 22 22 21 21 21 20 19 18 18 18 18 19 19 19 19 19 19 19 19 19 19 19 19 19 19 19 19 19 19 19 19 19 18 18 18 18 18 18 18 18 18
21 21 21 19 20 20 21 22 22 22 22 22 21 20 19 18 18 19 19 19 19 19 19 19 19 19 19 19 19 19 19 19 19 19 19 19 19 19 18 18 18 18 18 18 18 18 18 18 18
22 21 21 20 21 22 22 22 22 22 22 21 20 19 19 18 19 19 19 19 19 19 19 19 19 19 19 19 19 19 19 19 19 19 19 19 19 19 18 18 18 18 18 18 18 18 18 18 18
22 22 20 20 22 23 23 23 23 22 21 21 20 19 18 18 19 19 19 19 19 19 19 19 19 19 19 19 19 19 19 19 19 19 19 19 18 18 18 18 18 18 18 18 18 18 18 18 18
23 21 20 21 22 23 23 23 22 22 21 21 20 18 18 18 19 19 19 19 19 19 19 19 19 19 19 19 19 19 19 19 19 19 19 18 18 18 18 18 18 18 18 18 18 18 18 18 18
22 20 21 21 22 23 23 23 22 21 21 21 20 18 18 18 19 19 19 19 19 19 19 19 19 19 19 19 19 19 19 19 19 19 18 18 18 18 18 18 18 18 18 18 18 18 18 18 18
23 20 22 21 22 23 23 23 22 22 21 21 21 19 18 18 19 19 19 19 19 19 19 19 19 19 19 19 19 19 19 19 18 18 18 18 18 18 18 18 18 18 18 18 18 18 18 18 18
23 21 21 22 23 23 23 23 22 22 21 21 20 20 20 19 19 19 19 18 18 19 19 19 19 19 19 19 18 18 18 18 18 18 18 18 18 18 18 18 18 18 18 18 18 18 18 18 18
23 21 23 23 23 23 23 23 22 22 21 20 20 20 19 19 19 19 19 19 19 19 19 19 19 19 19 19 18 18 18 18 18 18 18 18 18 18 18 18 18 18 18 18 18 18 18 18 18
23 22 23 24 24 24 23 23 23 21 20 20 20 19 19 19 18 19 19 19 19 19 19 19 19 19 19 19 18 18 18 18 18 18 18 18 18 18 18 18 18 18 18 18 18 18 18 18 18
23 23 24 24 25 24 24 23 22 22 22 22 21 21 20 19 19 19 19 19 19 19 19 19 19 19 19 19 19 19 19 18 18 18 18 18 18 18 18 18 18 18 18 18 18 18 18 18 18
24 24 25 25 25 24 24 23 22 21 22 22 21 20 20 20 20 20 20 19 19 19 19 19 19 19 19 19 19 19 19 19 18 18 18 18 18 18 18 18 18 18 18 18 18 18 18 18 18
24 24 24 24 24 24 23 22 22 21 21 21 20 20 20 20 20 20 20 20 20 20 19 19 19 19 19 19 19 19 19 19 19 18 18 18 18 18 18 18 18 18 18 18 18 18 18 18 18
25 24 24 24 24 24 24 22 22 21 21 20 20 20 20 20 20 20 20 20 20 20 20 19 19 19 19 19 19 19 19 19 19 18 18 18 18 18 18 18 18 18 18 18 18 18 18 18 18
24 23 23 24 24 24 24 22 22 21 21 20 20 19 20 20 20 20 20 20 20 20 20 20 19 19 19 19 19 19 19 19 18 18 18 18 18 18 18 18 18 18 18 18 18 18 18 18 18
23 23 23 24 24 24 23 22 22 21 21 20 20 20 20 20 20 20 20 20 20 20 20 20 19 19 19 19 19 19 19 19 18 18 18 18 18 18 18 18 18 18 18 18 18 18 18 18 18
23 23 24 24 24 24 23 22 21 21 21 20 20 20 20 20 21 21 21 20 20 20 20 20 20 19 19 19 19 19 19 19 18 18 18 18 18 18 18 18 18 18 18 18 18 18 18 18 18
24 24 23 24 24 23 23 22 22 21 21 20 20 20 20 20 21 21 21 20 20 20 20 20 20 20 19 19 19 19 19 19 19 19 19 18 18 18 18 18 18 18 18 18 18 18 18 18 18
24 24 23 23 24 24 22 22 22 21 21 21 21 21 21 21 21 21 21 20 20 20 20 20 20 20 19 19 19 19 19 19 19 19 19 19 18 18 18 18 18 18 18 18 18 18 18 18 18
24 23 24 24 23 23 23 23 22 22 22 22 22 21 21 21 21 21 21 21 21 20 20 20 20 20 20 19 19 19 19 19 19 19 19 19 19 18 18 18 18 18 18 18 18 18 18 18 18
24 24 24 24 23 21 23 21 22 21 21 21 21 22 22 22 22 22 22 21 21 21 21 20 20 20 20 20 19 19 19 19 19 19 19 19 19 18 18 18 18 18 18 18 18 18 18 18 18
25 24 24 23 22 21 21 21 21 20 21 21 21 22 22 22 22 22 22 22 22 21 21 21 20 20 20 20 19 19 19 19 19 19 19 19 19 19 18 18 18 18 18 18 18 18 18 18 18
24 23 22 20 20 21 21 21 21 20 21 21 21 22 22 22 22 22 22 22 22 21 21 21 20 20 20 20 20 19 19 19 19 19 19 19 19 19 19 18 18 18 18 18 18 18 18 18 18
23 21 21 21 20 20 20 20 21 21 21 21 22 22 22 22 22 22 22 22 22 21 21 21 21 20 20 20 20 19 19 19 19 19 19 19 19 19 19 18 18 18 18 18 18 18 18 18 17
23 22 21 22 21 20 20 21 21 22 22 22 22 22 22 22 22 22 22 22 22 22 21 21 21 21 20 20 20 20 19 19 19 19 19 19 19 19 19 18 18 18 18 18 18 18 18 18 18
23 21 20 19 20 20 20 20 21 21 21 21 21 21 22 22 22 22 22 22 22 22 22 21 21 21 21 20 20 20 19 19 19 19 19 19 19 19 18 18 18 18 18 18 18 18 18 18 17
22 19 18 19 20 20 21 21 20 21 21 20 20 21 21 22 22 22 22 22 22 22 22 21 21 21 21 20 20 20 20 19 19 19 19 19 19 18 18 18 18 18 18 18 18 18 17 17 17
22 20 17 16 18 19 20 20 21 20 20 19 20 21 21 22 22 22 22 22 22 22 22 21 21 21 21 20 20 20 20 19 19 19 19 18 18 18 18 18 18 18 18 18 18 18 17 17 17
22 20 18 20 19 17 18 20 21 19 19 19 20 20 21 22 22 22 22 22 22 21 21 21 21 21 20 20 20 20 19 19 19 19 18 18 18 18 18 18 18 18 18 18 18 17 17 17 17
Wind_Speed
5 4 2 1 4 5 4 2 2 3 3 3 5 6 6 4 3 4 2 7 9 8 10 14 15 15 15 15 16 16 17 16 16 16 15 15 14 14 13 13 13 12 12 12 12 12 11 11 11
4 3 1 3 5 4 3 2 3 3 5 5 6 6 6 5 4 6 5 7 10 9 10 12 15 15 14 14 15 15 16 15 15 15 14 14 13 13 13 12 12 12 11 11 11 10 10 10 10
4 2 2 4 4 3 1 0 4 6 5 4 4 5 4 4 4 4 5 10 9 8 10 12 14 14 14 13 14 14 15 14 14 13 13 13 12 11 11 11 11 10 10 10 10 9 9 9 8
1 2 3 5 4 0 2 3 5 6 5 5 5 5 4 4 3 5 9 10 10 7 9 11 14 14 13 13 13 13 13 13 12 12 12 11 11 10 10 10 9 9 8 8 9 8 8 7 7
2 3 6 4 3 2 2 4 4 4 3 5 5 5 4 4 8 11 10 10 9 6 7 10 12 12 12 12 12 12 12 11 11 10 10 10 9 8 8 8 8 7 7 7 7 7 6 6 5
3 4 5 2 2 2 2 3 4 6 6 5 5 4 3 4 8 9 8 8 7 6 6 9 12 11 11 11 11 10 10 10 9 9 9 8 8 7 7 6 6 6 5 5 5 5 4 4 3
3 4 3 1 1 1 2 3 4 5 5 4 4 5 3 4 6 8 7 6 6 6 6 6 8 9 10 10 9 9 9 9 8 8 7 7 7 6 5 5 4 4 4 3 3 3 2 2 2
3 4 3 1 2 1 3 4 4 5 5 4 4 6 5 6 8 8 7 5 5 5 4 4 5 6 6 7 8 8 8 7 7 6 6 6 5 5 4 3 3 2 2 1 2 1 1 0 1
3 4 1 3 4 2 4 4 3 4 6 3 3 4 6 12 11 9 6 4 4 5 3 3 3 4 4 5 6 6 6 6 5 4 4 3 3 2 2 1 1 1 1 1 1 1 1 1 0
4 3 4 3 5 5 5 5 5 4 5 4 5 7 12 13 12 10 8 7 6 6 4 4 3 3 3 4 3 3 3 3 3 2 2 2 2 1 0 0 1 1 1 2 2 3 3 2 1
3 3 2 1 3 6 5 5 4 7 3 5 9 13 14 12 11 10 9 7 6 5 5 5 4 3 3 2 2 2 2 2 2 2 2 2 1 1 1 2 3 3 3 3 3 4 3 2 1
2 2 2 2 3 4 5 5 4 3 4 7 12 15 15 13 12 11 10 8 6 5 5 4 4 3 3 3 2 2 2 2 2 2 2 2 1 0 1 1 3 3 2 3 3 3 3 3 1
1 1 1 3 5 5 7 6 5 2 4 10 13 13 13 12 10 8 7 6 6 6 6 5 5 4 3 3 2 3 3 3 3 3 3 4 2 1 1 1 3 3 3 2 2 2 3 3 2
1 2 3 3 3 3 7 4 4 3 7 11 12 11 11 11 10 8 7 7 7 8 7 6 5 5 4 3 2 2 3 3 3 3 4 4 3 2 1 1 2 3 3 2 2 2 2 2 2
3 4 5 3 3 3 6 4 1 5 9 10 10 9 9 8 9 9 10 9 8 7 7 6 6 5 4 4 3 3 3 3 3 4 4 4 4 4 2 1 2 3 3 2 2 2 1 1 1
4 4 2 2 1 2 5 2 2 7 9 9 9 9 9 8 8 8 8 8 7 7 7 7 7 6 5 4 3 3 3 3 4 4 4 5 5 4 3 2 2 3 2 1 1 1 1 1 1
4 2 1 2 1 3 3 3 3 7 8 8 9 9 9 7 7 8 8 9 8 8 8 7 6 7 6 5 3 3 3 3 4 4 4 5 5 5 4 2 3 2 0 0 1 0 0 1 2
3 1 1 2 2 3 2 3 3 7 8 8 8 8 8 9 10 8 8 9 8 7 7 7 6 6 5 3 2 1 1 1 3 4 4 5 5 5 4 3 2 1 1 1 1 1 0 1 1
4 2 2 3 2 3 3 3 4 7 7 8 8 8 9 10 7 7 7 8 8 7 7 7 7 6 5 3 3 2 2 2 2 3 4 5 5 5 4 2 2 1 1 1 1 1 0 1 0
3 2 2 3 1 2 1 4 3 7 9 9 10 10 10 8 6 7 8 8 9 9 8 8 7 7 6 5 3 3 2 2 2 1 2 4 5 5 4 3 2 2 1 1 1 1 0 0 0
2 5 4 2 2 3 2 5 3 2 4 6 7 8 8 11 11 10 9 9 9 9 10 9 8 7 7 5 3 2 2 1 0 1 1 3 4 4 4 4 3 2 2 2 2 2 1 1 1
4 5 5 3 2 1 2 3 6 3 4 6 7 8 9 10 10 10 11 11 11 11 9 8 8 7 6 6 5 5 4 4 4 2 2 2 3 3 4 4 4 3 2 3 3 2 2 2 1
5 1 3 3 3 2 2 1 7 3 4 8 8 8 9 10 11 12 12 12 11 9 8 7 7 6 6 6 7 6 4 4 2 2 2 2 2 2 3 4 3 3 3 4 3 2 3 2 2
4 7 7 6 5 1 2 2 6 4 6 6 6 7 8 9 10 10 10 8 8 8 7 7 7 6 6 6 6 6 6 4 3 3 3 3 2 2 3 3 3 4 4 4 4 4 4 3 3
6 6 4 5 4 4 2 2 7 7 6 7 6 6 7 7 8 8 9 9 9 9 9 8 8 8 7 7 7 7 6 6 6 5 4 3 3 3 4 4 4 4 4 5 4 4 4 4 4
4 8 7 5 5 4 1 4 7 6 4 3 3 3 4 6 7 9 9 10 9 10 9 8 9 8 7 7 7 6 6 5 4 5 4 4 4 4 4 4 4 4 4 4 4 3 4 3 4
6 4 6 7 3 0 4 5 7 3 4 3 2 2 4 5 6 7 7 8 8 9 9 9 9 7 7 7 6 6 6 6 5 5 4 4 4 4 4 4 4 4 4 4 3 3 4 3 4
5 8 6 6 5 2 4 4 4 6 5 3 2 1 2 3 4 5 6 6 7 7 7 7 7 8 8 7 7 7 6 6 6 4 5 5 5 4 4 4 4 4 4 4 4 4 4 4 4
4 5 6 5 5 6 3 6 5 7 5 4 4 2 3 4 5 5 5 5 5 5 6 7 7 6 6 7 6 6 5 6 5 5 6 5 5 5 5 5 4 4 4 4 4 5 5 5 5
4 5 7 5 3 4 4 7 4 4 4 3 3 2 2 3 4 4 4 4 5 6 5 6 6 6 5 5 5 6 5 4 4 5 5 5 5 5 5 4 4 4 4 4 4 5 5 6 6
Wind_Direction
182 165 157 82 55 48 34 11 94 90 70 59 77 76 89 73 90 125 114 128 125 129 131 127 123 119 116 114 113 113 113 114 114 114 114 114 113 112 111 111 113 112 111 111 111 110 111 112 110
157 166 132 57 73 62 4 357 79 93 130 119 78 67 69 63 63 104 120 131 127 129 128 129 127 123 120 118 117 116 117 117 117 117 116 115 114 113 111 111 112 110 111 111 112 111 113 112 109
175 188 76 64 77 123 149 85 106 102 101 82 75 58 66 83 103 119 134 129 119 121 127 133 130 127 124 123 121 120 120 119 118 117 116 116 114 114 112 112 113 112 112 113 114 113 113 112 112
149 55 52 62 60 141 163 149 129 118 71 57 87 71 60 66 114 125 129 127 122 119 129 138 133 131 128 127 125 124 123 122 120 118 117 116 116 116 114 112 113 113 114 114 115 115 114 113 112
74 72 56 44 22 21 99 134 122 100 80 71 83 85 54 33 99 118 127 129 128 123 131 141 137 136 135 133 130 129 127 125 122 120 118 120 119 119 118 114 114 113 111 112 114 116 116 114 113
54 66 71 45 13 38 79 97 96 86 92 89 85 89 60 89 109 124 124 125 129 132 136 144 144 142 142 140 137 136 133 132 128 125 123 123 122 122 119 116 118 117 113 112 114 115 113 113 111
90 80 99 112 70 77 137 106 102 104 98 95 106 100 103 125 126 124 116 118 124 130 132 137 146 148 149 147 145 144 141 139 136 133 132 128 124 123 122 123 124 123 117 120 118 117 108 100 99
126 93 79 103 138 177 142 114 104 104 102 106 108 132 159 163 137 118 109 106 120 128 130 136 138 141 146 154 157 156 151 147 146 143 142 138 134 130 133 134 140 143 142 150 146 138 117 61 76
110 73 126 192 169 177 141 118 103 81 105 100 94 131 143 141 135 126 123 116 135 150 147 142 137 139 149 161 171 166 162 159 155 156 151 136 110 113 128 140 153 172 219 260 256 293 324 25 46
93 116 221 205 166 154 141 129 130 108 108 98 88 102 126 141 146 149 156 164 169 172 170 160 154 157 159 174 166 159 156 151 146 144 132 118 115 121 113 250 264 290 308 322 338 346 356 17 355
133 177 218 150 140 139 134 125 124 127 154 171 153 146 147 152 157 164 172 178 182 180 182 177 174 171 167 165 151 149 145 144 158 177 164 133 110 38 357 346 332 333 344 357 2 6 0 0 326
128 262 175 146 114 122 133 127 112 136 187 160 153 152 154 162 171 176 180 183 177 177 190 183 177 175 187 183 178 165 167 175 197 207 183 171 176 306 326 334 314 322 337 343 345 342 336 333 306
93 333 67 111 107 115 110 108 114 104 101 123 136 148 161 170 176 180 182 179 177 185 191 189 178 183 190 185 197 183 192 198 205 215 215 205 195 217 287 312 312 318 314 317 327 333 334 336 333
93 60 45 68 95 105 109 99 102 136 126 131 144 157 169 175 178 177 180 185 188 192 193 187 183 185 181 181 188 193 197 198 197 225 227 217 210 209 213 286 298 298 293 294 291 301 309 319 319
82 60 35 26 70 122 109 64 138 153 139 144 157 165 174 183 182 188 191 190 192 191 186 184 187 178 176 186 196 191 199 193 192 222 228 221 213 215 209 241 277 281 286 297 301 311 322 306 304
57 61 39 301 101 133 119 205 207 152 150 159 171 176 182 190 192 195 192 189 186 180 182 190 192 180 182 186 190 191 199 200 205 219 225 223 219 216 213 222 259 274 284 312 293 302 330 320 315
37 77 246 291 196 131 143 213 199 164 163 174 183 187 189 191 201 200 193 188 184 184 183 186 188 182 185 180 176 187 196 210 215 218 224 227 225 217 209 224 247 256 247 301 280 290 223 289 312
229 212 230 245 249 137 178 221 195 179 181 188 190 193 194 199 208 201 190 185 181 183 183 185 183 181 168 157 151 143 197 224 225 224 230 228 225 216 209 227 241 220 202 247 243 249 268 248 289
174 159 241 260 224 166 223 246 216 190 192 197 199 203 203 207 207 193 188 183 176 179 185 187 184 180 165 160 168 177 214 227 232 233 237 234 229 218 206 223 229 204 206 244 245 217 293 328 343
149 152 249 298 32 142 271 284 238 198 206 205 204 207 207 200 195 195 191 187 183 184 189 191 191 184 182 182 173 177 178 200 218 242 249 237 225 220 220 209 216 211 202 258 254 191 155 314 81
194 190 212 210 23 45 49 327 300 246 217 220 211 205 205 201 198 196 195 196 189 189 192 195 193 191 189 179 152 135 102 61 292 242 243 241 227 227 226 212 201 205 204 232 242 204 173 248 281
248 223 194 173 109 310 91 284 295 281 250 232 224 207 206 207 197 194 195 194 197 198 192 190 189 189 188 175 171 175 185 203 218 219 232 249 231 224 221 214 203 202 211 230 240 211 197 196 236
212 122 123 130 137 58 23 144 293 328 274 255 238 223 211 203 195 196 199 197 198 193 188 186 183 189 186 181 182 184 199 210 215 213 227 245 249 240 232 218 201 205 218 230 233 215 198 201 203
129 70 58 50 71 22 265 172 285 255 240 264 243 225 215 198 193 194 193 186 188 184 183 179 182 194 188 183 184 190 199 201 200 216 225 237 242 242 235 217 208 213 224 231 231 221 203 207 205
94 92 42 10 14 256 268 175 255 264 246 246 247 226 210 187 182 182 177 181 185 183 185 182 185 198 194 191 198 201 204 202 208 217 221 226 236 242 240 225 212 218 228 232 229 220 213 208 210
158 140 155 191 217 270 330 229 259 284 295 285 254 196 171 174 182 185 184 184 187 186 185 186 192 203 200 199 206 206 204 206 218 220 219 220 228 237 237 227 223 226 231 238 227 226 222 209 213
133 141 153 132 136 286 286 292 305 332 348 349 2 103 157 174 183 183 178 177 182 185 188 189 191 202 209 209 206 211 212 213 218 220 221 228 233 239 236 230 231 230 231 232 220 229 234 217 220
118 138 100 117 145 229 288 277 255 279 285 305 300 200 182 155 160 169 174 179 181 187 188 186 186 198 210 213 212 220 217 221 221 217 228 232 232 233 232 237 238 236 233 228 219 227 232 223 233
97 89 101 108 143 156 228 265 230 226 236 243 257 240 183 167 168 170 177 177 171 173 180 189 194 199 201 209 213 220 219 219 218 221 231 233 234 228 227 231 235 237 236 228 220 230 231 229 240
141 148 143 147 194 166 178 259 278 224 228 222 235 228 165 160 155 155 157 152 156 165 172 186 192 197 204 202 202 212 215 210 216 229 235 230 230 230 226 224 229 234 235 231 229 237 235 232 241
Height
1497 1497 1498 1499 1502 1512 1515 1510 1506 1506 1507 1508 1508 1509 1511 1514 1518 1524 1521 1522 1524 1526 1528 1530 1532 1534 1535 1536 1538 1539 1540 1540 1542 1543 1544 1545 1546 1547 1548 1548 1549 1550 1551 1552 1553 1554 1555 1556 1557
1497 1498 1500 1500 1510 1525 1520 1509 1508 1507 1508 1509 1510 1511 1513 1515 1517 1519 1520 1524 1526 1528 1530 1532 1534 1536 1537 1539 1540 1541 1542 1543 1544 1545 1546 1547 1548 1549 1550 1551 1552 1552 1553 1554 1555 1556 1557 1558 1559
1498 1499 1501 1503 1514 1522 1518 1509 1508 1508 1509 1510 1512 1514 1515 1518 1519 1520 1522 1525 1528 1530 1532 1534 1536 1538 1539 1541 1542 1544 1545 1546 1546 1547 1548 1549 1550 1551 1552 1553 1554 1554 1555 1556 1557 1558 1559 1559 1560
1499 1501 1503 1509 1515 1512 1510 1508 1508 1509 1510 1511 1513 1516 1518 1521 1521 1522 1524 1527 1530 1532 1534 1536 1538 1540 1541 1543 1544 1546 1547 1548 1549 1550 1551 1551 1552 1553 1554 1555 1556 1556 1557 1558 1559 1559 1560 1561 1562
1501 1502 1509 1517 1514 1509 1507 1508 1508 1509 1512 1514 1515 1518 1521 1523 1523 1525 1527 1529 1531 1534 1536 1538 1540 1542 1543 1545 1546 1547 1549 1550 1551 1552 1553 1553 1554 1555 1556 1556 1557 1558 1559 1559 1560 1561 1562 1562 1563
1502 1504 1518 1524 1516 1510 1509 1509 1510 1511 1514 1516 1517 1520 1523 1525 1526 1528 1529 1532 1534 1535 1538 1540 1542 1543 1545 1546 1548 1549 1550 1551 1552 1554 1554 1555 1556 1557 1557 1558 1559 1559 1560 1561 1561 1562 1563 1564 1565
1505 1509 1518 1519 1518 1513 1511 1511 1511 1513 1515 1517 1518 1521 1524 1526 1528 1529 1531 1533 1535 1537 1539 1541 1543 1545 1547 1548 1549 1551 1552 1553 1554 1555 1556 1557 1558 1558 1559 1560 1560 1561 1561 1562 1563 1563 1564 1565 1566
1504 1510 1516 1518 1517 1515 1511 1511 1513 1514 1516 1518 1520 1521 1524 1526 1529 1531 1533 1535 1537 1539 1541 1543 1545 1546 1548 1549 1551 1552 1553 1555 1556 1557 1558 1558 1559 1560 1560 1561 1562 1562 1562 1563 1564 1564 1565 1566 1566
1505 1514 1520 1516 1515 1513 1511 1512 1515 1516 1517 1519 1520 1522 1524 1526 1529 1531 1534 1536 1538 1540 1542 1544 1546 1548 1549 1551 1552 1553 1555 1556 1557 1558 1559 1560 1560 1561 1562 1562 1563 1563 1563 1564 1565 1565 1566 1566 1567
1505 1516 1513 1507 1507 1509 1511 1512 1515 1517 1518 1520 1521 1523 1525 1527 1530 1532 1534 1536 1538 1540 1543 1545 1547 1549 1551 1552 1553 1554 1555 1557 1558 1559 1560 1561 1562 1562 1563 1564 1564 1564 1564 1565 1565 1566 1566 1567 1567
1505 1510 1506 1505 1506 1507 1510 1513 1515 1517 1519 1519 1520 1523 1526 1528 1531 1533 1535 1537 1539 1542 1544 1546 1548 1550 1551 1553 1554 1555 1556 1558 1559 1560 1562 1562 1563 1564 1564 1565 1565 1565 1566 1566 1566 1567 1567 1567 1568
1506 1505 1505 1506 1506 1508 1510 1513 1516 1517 1517 1518 1520 1522 1525 1528 1531 1533 1536 1538 1541 1543 1545 1547 1549 1551 1552 1554 1555 1556 1557 1558 1560 1562 1562 1563 1564 1565 1565 1565 1566 1567 1567 1567 1567 1567 1568 1568 1568
1507 1506 1506 1506 1507 1509 1511 1514 1516 1518 1518 1519 1521 1524 1526 1529 1531 1534 1537 1539 1541 1543 1546 1548 1550 1551 1553 1554 1556 1557 1558 1559 1561 1562 1563 1564 1565 1565 1566 1566 1567 1567 1567 1568 1568 1568 1568 1568 1568
1507 1507 1508 1508 1509 1511 1513 1515 1517 1519 1519 1521 1523 1525 1527 1530 1532 1535 1537 1539 1541 1544 1546 1548 1550 1552 1553 1555 1556 1557 1559 1560 1561 1563 1564 1565 1565 1566 1566 1567 1567 1567 1568 1568 1568 1568 1568 1568 1568
1508 1510 1511 1511 1510 1512 1514 1519 1518 1519 1520 1522 1524 1526 1528 1530 1532 1534 1536 1539 1541 1544 1546 1548 1551 1552 1554 1555 1556 1558 1559 1560 1562 1563 1564 1565 1565 1566 1566 1567 1567 1568 1568 1567 1568 1568 1567 1567 1567
1510 1516 1522 1514 1512 1513 1518 1526 1519 1519 1520 1522 1524 1526 1528 1530 1532 1534 1537 1539 1541 1544 1546 1549 1551 1552 1554 1555 1557 1558 1560 1561 1562 1563 1564 1565 1566 1566 1566 1567 1567 1567 1567 1567 1567 1567 1567 1567 1567
1520 1527 1525 1518 1512 1513 1517 1523 1519 1519 1520 1522 1524 1526 1527 1530 1532 1534 1536 1539 1541 1544 1546 1548 1550 1552 1554 1555 1557 1558 1560 1561 1562 1563 1564 1565 1565 1566 1566 1566 1567 1567 1567 1567 1567 1567 1567 1566 1566
1526 1526 1524 1522 1514 1514 1518 1520 1518 1519 1520 1521 1523 1525 1526 1528 1530 1532 1535 1538 1541 1543 1546 1548 1550 1552 1553 1555 1557 1558 1559 1560 1561 1562 1563 1564 1565 1565 1565 1565 1566 1566 1566 1566 1566 1566 1566 1566 1565
1515 1521 1524 1519 1512 1515 1518 1519 1517 1518 1519 1520 1522 1523 1525 1526 1529 1532 1534 1537 1539 1542 1544 1546 1548 1550 1552 1554 1555 1557 1558 1559 1560 1561 1562 1563 1563 1564 1564 1565 1565 1565 1566 1566 1565 1565 1565 1565 1564
1515 1521 1523 1518 1512 1515 1519 1519 1515 1515 1516 1516 1518 1520 1522 1525 1527 1530 1532 1535 1537 1539 1542 1544 1547 1549 1551 1552 1554 1556 1557 1558 1559 1560 1561 1561 1562 1563 1563 1564 1564 1565 1565 1565 1565 1565 1564 1564 1564
1515 1519 1519 1520 1517 1516 1520 1523 1517 1514 1515 1516 1517 1518 1520 1522 1524 1527 1530 1532 1535 1537 1539 1542 1545 1547 1549 1551 1553 1554 1556 1557 1558 1558 1559 1560 1561 1562 1562 1563 1563 1563 1563 1563 1563 1563 1563 1563 1562
1518 1509 1512 1516 1526 1532 1527 1541 1523 1516 1514 1513 1513 1515 1516 1518 1521 1523 1526 1529 1532 1534 1538 1541 1543 1545 1547 1549 1551 1552 1553 1554 1556 1557 1558 1559 1559 1560 1561 1561 1562 1562 1562 1562 1562 1562 1561 1561 1561
1508 1505 1510 1516 1525 1534 1532 1540 1531 1519 1517 1511 1509 1510 1512 1514 1517 1519 1522 1525 1529 1533 1536 1539 1541 1543 1546 1547 1549 1550 1552 1553 1554 1555 1556 1557 1558 1558 1559 1559 1559 1559 1560 1560 1560 1560 1560 1560 1559
1503 1511 1518 1526 1534 1546 1538 1541 1537 1523 1515 1508 1505 1506 1508 1510 1513 1516 1519 1523 1527 1530 1533 1536 1538 1541 1543 1545 1547 1548 1549 1551 1552 1553 1553 1554 1555 1556 1556 1557 1557 1557 1557 1557 1557 1557 1558 1558 1557
1507 1524 1544 1547 1555 1551 1536 1538 1532 1511 1506 1505 1503 1503 1504 1507 1510 1513 1516 1520 1523 1527 1530 1533 1535 1538 1540 1542 1544 1546 1547 1548 1549 1550 1551 1552 1552 1553 1554 1554 1555 1555 1555 1555 1555 1555 1555 1555 1555
1510 1519 1543 1553 1557 1550 1538 1538 1522 1507 1504 1502 1502 1502 1503 1505 1507 1510 1514 1517 1521 1524 1528 1530 1533 1535 1537 1539 1541 1543 1544 1546 1547 1548 1548 1549 1549 1550 1551 1551 1551 1552 1552 1552 1552 1552 1552 1552 1552
1510 1519 1520 1539 1545 1551 1543 1531 1516 1505 1504 1502 1502 1501 1502 1503 1506 1509 1512 1515 1519 1522 1525 1527 1530 1532 1534 1536 1538 1540 1541 1543 1544 1545 1545 1546 1546 1547 1547 1548 1548 1548 1549 1549 1549 1549 1549 1549 1549
1502 1512 1528 1539 1552 1555 1544 1536 1529 1513 1508 1504 1503 1502 1501 1503 1505 1508 1511 1514 1517 1520 1523 1525 1527 1529 1531 1534 1535 1537 1538 1540 1540 1541 1541 1542 1543 1543 1544 1544 1545 1545 1545 1546 1546 1546 1546 1546 1546
1508 1515 1526 1538 1540 1552 1553 1539 1511 1509 1506 1504 1502 1501 1501 1502 1504 1506 1509 1512 1515 1518 1521 1523 1525 1527 1529 1531 1532 1534 1535 1536 1537 1537 1538 1538 1539 1539 1540 1540 1541 1541 1541 1542 1542 1542 1542 1542 1542
1501 1509 1520 1531 1540 1544 1546 1535 1504 1503 1502 1502 1502 1501 1501 1502 1504 1506 1509 1512 1515 1517 1519 1521 1523 1524 1526 1528 1529 1531 1532 1533 1533 1534 1534 1534 1535 1535 1536 1536 1536 1537 1537 1537 1538 1538 1538 1538 1538